Date String (YYYY-MM-DD hh:mm:ss) UTC,Instrument flags,absolute air pressure of the measurement (hPa),sample flow rate (lpm),inlet stack bypass flow (lpm),air temperature of the measurement (°C),ambient temperature measured by the external sensor (°C),aerosol sample conditioner tube jacket temperature (°C),OPC LED temperature (°C),internal box temperature (°C),relative humidity of the measurement (%),span deviation,mass concentration of particles derived from Lorenz-Mie calculation of OPC scattering (μg/m³),mass concentration of particles derived from Lorenz-Mie calculation of OPC scattering (μg/m³),mass concentration of particles derived from Lorenz-Mie calculation of OPC scattering (μg/m³)
DateTimeUTC,F1_M11,P_M11,Q1_M11,Q2_M11,T1_M11,T2_M11,T3_M11,T4_M11,T5_M11,U1_M11,ZSPAN_M11,X0_M11,X2_M11,X1_M11
2023-08-31 09:00:00,SystemResetWarning,0829.1,5.00,000.00,025.9,024.5,000.0,034.2,027.6,21.6,0000.0,0010.38,0003.29,0002.79
2023-08-31 09:01:00,SystemResetWarning,0829.1,5.00,000.00,025.9,024.7,000.0,034.2,027.6,21.7,0000.0,0010.49,0003.28,0002.78
2023-08-31 09:02:00,SystemResetWarning,0829.1,4.99,000.00,025.9,024.8,000.0,034.2,027.7,21.6,0000.0,0009.55,0003.28,0002.78
2023-08-31 09:03:00,SystemResetWarning,0829.1,5.00,000.00,026.0,025.0,000.0,034.3,027.8,21.4,0000.0,0009.50,0003.28,0002.76
2023-08-31 09:04:00,SystemResetWarning,0829.1,5.01,000.00,026.0,025.0,000.0,034.3,027.8,21.5,0000.0,0009.17,0003.26,0002.75
2023-08-31 09:05:00,SystemResetWarning,0829.1,4.98,000.00,026.0,023.8,000.0,034.2,027.4,21.4,0000.0,0009.03,0003.26,0002.75
2023-08-31 09:06:00,SystemResetWarning,0829.1,5.00,000.00,025.9,022.7,000.0,034.2,027.2,21.3,0000.0,0009.03,0003.29,0002.75
2023-08-31 09:07:00,SystemResetWarning,0829.1,5.01,000.00,025.8,022.7,000.0,034.1,027.0,21.3,0000.0,0008.71,0003.30,0002.75
2023-08-31 09:08:00,SystemResetWarning,0829.1,5.00,000.00,025.7,022.9,000.0,034.1,027.0,21.7,0000.0,0008.57,0003.32,0002.74
2023-08-31 09:09:00,SystemResetWarning,0829.1,5.00,000.00,025.7,023.3,000.0,034.2,027.2,21.8,0000.0,0007.68,0003.30,0002.74
2023-08-31 09:10:00,SystemResetWarning,0829.1,5.00,000.00,025.7,023.6,000.0,034.2,027.3,21.8,0000.0,0007.98,0003.31,0002.73
2023-08-31 09:11:00,SystemResetWarning,0829.1,5.00,000.00,025.8,023.9,000.0,034.2,027.4,22.0,0000.0,0008.69,0003.34,0002.72
2023-08-31 09:12:00,SystemResetWarning,0829.1,5.00,000.00,025.8,024.2,000.0,034.2,027.5,22.3,0000.0,0009.03,0003.31,0002.71
2023-08-31 09:13:00,SystemResetWarning,0829.1,5.01,000.00,025.8,024.4,000.0,034.2,027.5,22.2,0000.0,0009.04,0003.33,0002.71
2023-08-31 09:14:00,SystemResetWarning,0829.1,5.01,000.00,025.9,024.6,000.0,034.2,027.6,22.2,0000.0,0008.99,0003.33,0002.73
2023-08-31 09:15:00,SystemResetWarning,0829.2,5.00,000.00,025.9,024.7,000.0,034.3,027.7,22.3,0000.0,0008.61,0003.34,0002.75
2023-08-31 09:16:00,SystemResetWarning,0829.1,5.00,000.00,026.0,024.9,000.0,034.3,027.7,22.3,0000.0,0008.75,0003.37,0002.77
2023-08-31 09:17:00,SystemResetWarning,0829.2,5.00,000.00,026.0,025.0,000.0,034.3,027.8,22.5,0000.0,0008.70,0003.33,0002.77
2023-08-31 09:18:00,SystemResetWarning,0829.2,4.98,000.00,026.0,024.3,000.0,034.3,027.6,22.6,0000.0,0009.45,0003.32,0002.77
2023-08-31 09:19:00,SystemResetWarning,0829.1,5.00,000.00,025.9,022.9,000.0,034.2,027.2,23.1,0000.0,0009.55,0003.31,0002.78
2023-08-31 09:20:00,SystemResetWarning,0829.2,5.01,000.00,025.8,022.7,000.0,034.1,027.1,22.8,0000.0,0009.54,0003.31,0002.78
2023-08-31 09:21:00,SystemResetWarning,0829.2,5.00,000.00,025.8,022.9,000.0,034.2,027.0,21.9,0000.0,0009.36,0003.32,0002.78
2023-08-31 09:22:00,SystemResetWarning,0829.2,5.00,000.00,025.7,023.2,000.0,034.2,027.1,22.2,0000.0,0008.46,0003.27,0002.79
2023-08-31 09:23:00,SystemResetWarning,0829.3,5.00,000.00,025.7,023.5,000.0,034.2,027.3,22.7,0000.0,0007.34,0003.27,0002.79
2023-08-31 09:24:00,SystemResetWarning,0829.3,5.00,000.00,025.8,023.8,000.0,034.2,027.4,22.6,0000.0,0007.29,0003.28,0002.81
2023-08-31 09:25:00,SystemResetWarning,0829.3,5.00,000.00,025.8,024.1,000.0,034.2,027.4,23.3,0000.0,0007.78,0003.30,0002.82
2023-08-31 09:26:00,SystemResetWarning,0829.4,4.99,000.00,025.8,024.4,000.0,034.2,027.5,23.4,0000.0,0007.96,0003.32,0002.81
2023-08-31 09:27:00,SystemResetWarning,0829.4,5.00,000.00,025.9,024.6,000.0,034.2,027.6,23.2,0000.0,0007.73,0003.32,0002.81
2023-08-31 09:28:00,SystemResetWarning,0829.4,5.00,000.00,025.9,024.7,000.0,034.2,027.7,23.1,0000.0,0007.80,0003.34,0002.82
2023-08-31 09:29:00,SystemResetWarning,0829.4,5.00,000.00,026.0,024.9,000.0,034.3,027.7,23.2,0000.0,0007.24,0003.35,0002.83
2023-08-31 09:30:00,SystemResetWarning,0829.3,5.00,000.00,026.0,025.0,000.0,034.3,027.8,23.0,0000.0,0006.80,0003.36,0002.84
2023-08-31 09:31:00,SystemResetWarning,0829.3,5.00,000.00,026.1,025.1,000.0,034.3,027.8,23.0,0000.0,0006.91,0003.38,0002.86
2023-08-31 09:32:00,SystemResetWarning,0829.3,4.98,000.00,026.1,024.2,000.0,034.3,027.6,23.3,0000.0,0006.90,0003.38,0002.87
2023-08-31 09:33:00,SystemResetWarning,0829.3,5.00,000.00,026.0,022.4,000.0,034.2,027.1,23.3,0000.0,0006.70,0003.36,0002.88
2023-08-31 09:34:00,SystemResetWarning,0829.2,5.01,000.00,025.8,021.8,000.0,034.1,027.0,23.4,0000.0,0006.58,0003.35,0002.88
2023-08-31 09:35:00,SystemResetWarning,0829.2,5.01,000.00,025.7,022.0,000.0,034.1,026.9,24.4,0000.0,0006.62,0003.36,0002.88
2023-08-31 09:36:00,SystemResetWarning,0829.2,5.00,000.00,025.7,022.4,000.0,034.1,026.9,24.8,0000.0,0006.42,0003.35,0002.87
2023-08-31 09:37:00,SystemResetWarning,0829.3,5.00,000.00,025.6,022.8,000.0,034.1,027.0,24.4,0000.0,0005.53,0003.33,0002.87
2023-08-31 09:38:00,SystemResetWarning,0829.3,4.99,000.00,025.7,023.2,000.0,034.1,027.2,23.9,0000.0,0006.44,0003.33,0002.87
2023-08-31 09:39:00,SystemResetWarning,0829.3,5.00,000.00,025.7,023.6,000.0,034.1,027.3,23.9,0000.0,0006.92,0003.34,0002.85
2023-08-31 09:40:00,SystemResetWarning,0829.3,5.00,000.00,025.7,023.9,000.0,034.1,027.4,24.2,0000.0,0007.77,0003.32,0002.84
2023-08-31 09:41:00,SystemResetWarning,0829.4,5.00,000.00,025.7,024.2,000.0,034.1,027.4,24.6,0000.0,0007.85,0003.32,0002.82
2023-08-31 09:42:00,SystemResetWarning,0829.4,5.00,000.00,025.8,024.4,000.0,034.1,027.5,24.8,0000.0,0008.00,0003.32,0002.79
2023-08-31 09:43:00,SystemResetWarning,0829.3,5.00,000.00,025.8,024.6,000.0,034.2,027.6,24.8,0000.0,0007.97,0003.30,0002.77
2023-08-31 09:44:00,SystemResetWarning,0829.3,5.00,000.00,025.9,024.7,000.0,034.2,027.6,25.1,0000.0,0007.98,0003.32,0002.77
2023-08-31 09:45:00,SystemResetWarning,0829.4,5.00,000.00,025.9,024.9,000.0,034.2,027.7,25.7,0000.0,0008.01,0003.33,0002.77
2023-08-31 09:46:00,SystemResetWarning,0829.4,5.00,000.00,026.0,025.0,000.0,034.2,027.8,25.5,0000.0,0008.00,0003.32,0002.77
2023-08-31 09:47:00,SystemResetWarning,0829.4,4.99,000.00,026.0,025.1,000.0,034.3,027.8,25.5,0000.0,0008.14,0003.32,0002.78
2023-08-31 09:48:00,SystemResetWarning,0829.4,5.00,000.00,026.1,025.2,000.0,034.3,027.8,25.5,0000.0,0008.12,0003.35,0002.79
2023-08-31 09:49:00,SystemResetWarning,0829.4,4.99,000.00,026.1,024.4,000.0,034.3,027.7,25.3,0000.0,0007.73,0003.37,0002.80
2023-08-31 09:50:00,SystemResetWarning,0829.3,5.01,000.00,026.0,023.0,000.0,034.2,027.3,25.3,0000.0,0007.32,0003.38,0002.83
2023-08-31 09:51:00,SystemResetWarning,0829.4,5.02,000.00,025.9,022.8,000.0,034.1,027.3,25.8,0000.0,0006.13,0003.39,0002.86
2023-08-31 09:52:00,SystemResetWarning,0829.4,5.00,000.00,025.8,023.0,000.0,034.2,027.2,25.7,0000.0,0005.99,0003.41,0002.90
2023-08-31 09:53:00,SystemResetWarning,0829.4,5.00,000.00,025.8,023.3,000.0,034.2,027.2,25.7,0000.0,0005.82,0003.41,0002.95
2023-08-31 09:54:00,SystemResetWarning,0829.4,5.00,000.00,025.8,023.6,000.0,034.2,027.4,25.5,0000.0,0006.04,0003.46,0003.02
2023-08-31 09:55:00,SystemResetWarning,0829.3,5.00,000.00,025.8,023.9,000.0,034.2,027.4,25.5,0000.0,0007.07,0003.49,0003.05
2023-08-31 09:56:00,SystemResetWarning,0829.3,5.00,000.00,025.9,024.2,000.0,034.2,027.5,25.4,0000.0,0007.50,0003.49,0003.06
2023-08-31 09:57:00,SystemResetWarning,0829.4,5.00,000.00,025.9,024.4,000.0,034.2,027.6,25.1,0000.0,0007.57,0003.50,0003.07
2023-08-31 09:58:00,SystemResetWarning,0829.4,5.00,000.00,025.9,024.6,000.0,034.3,027.7,25.0,0000.0,0007.60,0003.50,0003.08
2023-08-31 09:59:00,SystemResetWarning,0829.4,5.00,000.00,026.0,024.8,000.0,034.3,027.7,24.8,0000.0,0007.75,0003.53,0003.10
